Year,Month,Day,Hour,Minute,Value (Times are PST for temperature in C)
2018,07,05,00,00,20.30
2018,07,05,00,01,20.20
2018,07,05,00,02,20.20
2018,07,05,00,03,20.20
2018,07,05,00,04,20.20
2018,07,05,00,05,20.20
2018,07,05,00,06,20.20
2018,07,05,00,07,20.20
2018,07,05,00,08,20.20
2018,07,05,00,09,20.20
2018,07,05,00,10,20.20
2018,07,05,00,11,20.20
2018,07,05,00,12,20.20
2018,07,05,00,13,20.10
2018,07,05,00,14,20.10
2018,07,05,00,15,20.10
2018,07,05,00,16,20.10
2018,07,05,00,17,20.10
2018,07,05,00,18,20.00
2018,07,05,00,19,20.00
2018,07,05,00,20,20.00
2018,07,05,00,21,19.90
2018,07,05,00,22,19.90
2018,07,05,00,23,19.90
2018,07,05,00,24,19.90
2018,07,05,00,25,19.90
2018,07,05,00,26,19.80
2018,07,05,00,27,19.80
2018,07,05,00,28,19.80
2018,07,05,00,29,19.70
2018,07,05,00,30,19.70
2018,07,05,00,31,19.60
2018,07,05,00,32,19.60
2018,07,05,00,33,19.50
2018,07,05,00,34,19.50
2018,07,05,00,35,19.40
2018,07,05,00,36,19.40
2018,07,05,00,37,19.40
2018,07,05,00,38,19.30
2018,07,05,00,39,19.30
2018,07,05,00,40,19.30
2018,07,05,00,41,19.30
2018,07,05,00,42,19.30
2018,07,05,00,43,19.30
2018,07,05,00,44,19.20
2018,07,05,00,45,19.20
2018,07,05,00,46,19.20
2018,07,05,00,47,19.20
2018,07,05,00,48,19.20
2018,07,05,00,49,19.20
2018,07,05,00,50,19.20
2018,07,05,00,51,19.20
2018,07,05,00,52,19.20
2018,07,05,00,53,19.10
2018,07,05,00,54,19.10
2018,07,05,00,55,19.10
2018,07,05,00,56,19.10
2018,07,05,00,57,19.10
2018,07,05,00,58,19.10
2018,07,05,00,59,19.10
2018,07,05,01,00,19.10
2018,07,05,01,01,19.10
2018,07,05,01,02,19.10
2018,07,05,01,03,19.10
2018,07,05,01,04,19.10
2018,07,05,01,05,19.10
2018,07,05,01,06,19.10
2018,07,05,01,07,19.10
2018,07,05,01,08,19.10
2018,07,05,01,09,19.10
2018,07,05,01,10,19.10
2018,07,05,01,11,19.10
2018,07,05,01,12,19.10
2018,07,05,01,13,19.10
2018,07,05,01,14,19.10
2018,07,05,01,15,19.10
2018,07,05,01,16,19.10
2018,07,05,01,17,19.10
2018,07,05,01,18,19.10
2018,07,05,01,19,19.00
2018,07,05,01,20,19.00
2018,07,05,01,21,19.00
2018,07,05,01,22,19.00
2018,07,05,01,23,19.00
2018,07,05,01,24,19.00
2018,07,05,01,25,19.00
2018,07,05,01,26,19.00
2018,07,05,01,27,19.00
2018,07,05,01,28,19.00
2018,07,05,01,29,19.00
2018,07,05,01,30,19.00
2018,07,05,01,31,19.00
2018,07,05,01,32,19.00
2018,07,05,01,33,19.00
2018,07,05,01,34,19.00
2018,07,05,01,35,19.00
2018,07,05,01,36,19.00
2018,07,05,01,37,19.00
2018,07,05,01,38,19.00
2018,07,05,01,39,19.00
2018,07,05,01,40,18.90
2018,07,05,01,41,18.90
2018,07,05,01,42,18.90
2018,07,05,01,43,18.90
2018,07,05,01,44,18.90
2018,07,05,01,45,18.90
2018,07,05,01,46,18.90
2018,07,05,01,47,18.90
2018,07,05,01,48,18.90
2018,07,05,01,49,18.90
2018,07,05,01,50,18.90
2018,07,05,01,51,18.90
2018,07,05,01,52,18.90
2018,07,05,01,53,18.90
2018,07,05,01,54,18.90
2018,07,05,01,55,18.90
2018,07,05,01,56,18.90
2018,07,05,01,57,18.90
2018,07,05,01,58,18.90
2018,07,05,01,59,18.90
2018,07,05,02,00,18.90
2018,07,05,02,01,18.90
2018,07,05,02,02,18.90
2018,07,05,02,03,18.90
2018,07,05,02,04,18.90
2018,07,05,02,05,18.90
2018,07,05,02,06,18.90
2018,07,05,02,07,18.90
2018,07,05,02,08,18.90
2018,07,05,02,09,18.90
2018,07,05,02,10,18.90
2018,07,05,02,11,18.90
2018,07,05,02,12,18.90
2018,07,05,02,13,18.90
2018,07,05,02,14,18.90
2018,07,05,02,15,18.90
2018,07,05,02,16,18.90
2018,07,05,02,17,18.90
2018,07,05,02,18,18.90
2018,07,05,02,19,18.90
2018,07,05,02,20,18.90
2018,07,05,02,21,18.90
2018,07,05,02,22,18.80
2018,07,05,02,23,18.80
2018,07,05,02,24,18.80
2018,07,05,02,25,18.80
2018,07,05,02,26,18.80
2018,07,05,02,27,18.80
2018,07,05,02,28,18.80
2018,07,05,02,29,18.80
2018,07,05,02,30,18.80
2018,07,05,02,31,18.80
2018,07,05,02,32,18.80
2018,07,05,02,33,18.80
2018,07,05,02,34,18.80
2018,07,05,02,35,18.80
2018,07,05,02,36,18.70
2018,07,05,02,37,18.70
2018,07,05,02,38,18.70
2018,07,05,02,39,18.70
2018,07,05,02,40,18.70
2018,07,05,02,41,18.70
2018,07,05,02,42,18.70
2018,07,05,02,43,18.70
2018,07,05,02,44,18.70
2018,07,05,02,45,18.60
2018,07,05,02,46,18.60
2018,07,05,02,47,18.70
2018,07,05,02,48,18.60
2018,07,05,02,49,18.70
2018,07,05,02,50,18.70
2018,07,05,02,51,18.70
2018,07,05,02,52,18.70
2018,07,05,02,53,18.60
2018,07,05,02,54,18.60
2018,07,05,02,55,18.60
2018,07,05,02,56,18.60
2018,07,05,02,57,18.60
2018,07,05,02,58,18.60
2018,07,05,02,59,18.60
2018,07,05,03,00,18.60
2018,07,05,03,01,18.60
2018,07,05,03,02,18.60
2018,07,05,03,03,18.50
2018,07,05,03,04,18.50
2018,07,05,03,05,18.50
2018,07,05,03,06,18.50
2018,07,05,03,07,18.50
2018,07,05,03,08,18.50
2018,07,05,03,09,18.50
2018,07,05,03,10,18.50
2018,07,05,03,11,18.50
2018,07,05,03,12,18.50
2018,07,05,03,13,18.40
2018,07,05,03,14,18.40
2018,07,05,03,15,18.40
2018,07,05,03,16,18.40
2018,07,05,03,17,18.40
2018,07,05,03,18,18.40
2018,07,05,03,19,18.40
2018,07,05,03,20,18.40
2018,07,05,03,21,18.40
2018,07,05,03,22,18.40
2018,07,05,03,23,18.40
2018,07,05,03,24,18.40
2018,07,05,03,25,18.40
2018,07,05,03,26,18.40
2018,07,05,03,27,18.40
2018,07,05,03,28,18.40
2018,07,05,03,29,18.50
2018,07,05,03,30,18.50
2018,07,05,03,31,18.50
2018,07,05,03,32,18.50
2018,07,05,03,33,18.40
2018,07,05,03,34,18.40
2018,07,05,03,35,18.40
2018,07,05,03,36,18.40
2018,07,05,03,37,18.40
2018,07,05,03,38,18.40
2018,07,05,03,39,18.40
2018,07,05,03,40,18.40
2018,07,05,03,41,18.40
2018,07,05,03,42,18.40
2018,07,05,03,43,18.40
2018,07,05,03,44,18.40
2018,07,05,03,45,18.40
2018,07,05,03,46,18.40
2018,07,05,03,47,18.40
2018,07,05,03,48,18.40
2018,07,05,03,49,18.40
2018,07,05,03,50,18.40
2018,07,05,03,51,18.30
2018,07,05,03,52,18.30
2018,07,05,03,53,18.30
2018,07,05,03,54,18.30
2018,07,05,03,55,18.30
2018,07,05,03,56,18.30
2018,07,05,03,57,18.30
2018,07,05,03,58,18.30
2018,07,05,03,59,18.30
2018,07,05,04,00,18.30
2018,07,05,04,01,18.30
2018,07,05,04,02,18.30
2018,07,05,04,03,18.30
2018,07,05,04,04,18.30
2018,07,05,04,05,18.30
2018,07,05,04,06,18.30
2018,07,05,04,07,18.30
2018,07,05,04,08,18.30
2018,07,05,04,09,18.30
2018,07,05,04,10,18.30
2018,07,05,04,11,18.30
2018,07,05,04,12,18.20
2018,07,05,04,13,18.20
2018,07,05,04,14,18.20
2018,07,05,04,15,18.20
2018,07,05,04,16,18.20
2018,07,05,04,17,18.10
2018,07,05,04,18,18.10
2018,07,05,04,19,18.10
2018,07,05,04,20,18.10
2018,07,05,04,21,18.00
2018,07,05,04,22,18.00
2018,07,05,04,23,18.00
2018,07,05,04,24,17.90
2018,07,05,04,25,17.90
2018,07,05,04,26,17.90
2018,07,05,04,27,17.80
2018,07,05,04,28,17.80
2018,07,05,04,29,17.80
2018,07,05,04,30,17.80
2018,07,05,04,31,17.70
2018,07,05,04,32,17.70
2018,07,05,04,33,17.70
2018,07,05,04,34,17.70
2018,07,05,04,35,17.60
2018,07,05,04,36,17.60
2018,07,05,04,37,17.60
2018,07,05,04,38,17.50
2018,07,05,04,39,17.50
2018,07,05,04,40,17.50
2018,07,05,04,41,17.40
2018,07,05,04,42,17.40
2018,07,05,04,43,17.40
2018,07,05,04,44,17.30
2018,07,05,04,45,17.30
2018,07,05,04,46,17.30
2018,07,05,04,47,17.30
2018,07,05,04,48,17.30
2018,07,05,04,49,17.30
2018,07,05,04,50,17.30
2018,07,05,04,51,17.30
2018,07,05,04,52,17.30
2018,07,05,04,53,17.30
2018,07,05,04,54,17.30
2018,07,05,04,55,17.30
2018,07,05,04,56,17.30
2018,07,05,04,57,17.30
2018,07,05,04,58,17.30
2018,07,05,04,59,17.30
2018,07,05,05,00,17.30
2018,07,05,05,01,17.30
2018,07,05,05,02,17.30
2018,07,05,05,03,17.30
2018,07,05,05,04,17.30
2018,07,05,05,05,17.30
2018,07,05,05,06,17.30
2018,07,05,05,07,17.30
2018,07,05,05,08,17.30
2018,07,05,05,09,17.30
2018,07,05,05,10,17.30
2018,07,05,05,11,17.30
2018,07,05,05,12,17.30
2018,07,05,05,13,17.30
2018,07,05,05,14,17.30
2018,07,05,05,15,17.30
2018,07,05,05,16,17.30
2018,07,05,05,17,17.30
2018,07,05,05,18,17.30
2018,07,05,05,19,17.30
2018,07,05,05,20,17.30
2018,07,05,05,21,17.30
2018,07,05,05,22,17.30
2018,07,05,05,23,17.30
2018,07,05,05,24,17.30
2018,07,05,05,25,17.30
2018,07,05,05,26,17.30
2018,07,05,05,27,17.30
2018,07,05,05,28,17.30
2018,07,05,05,29,17.30
2018,07,05,05,30,17.30
2018,07,05,05,31,17.30
2018,07,05,05,32,17.30
2018,07,05,05,33,17.30
2018,07,05,05,34,17.30
2018,07,05,05,35,17.30
2018,07,05,05,36,17.30
2018,07,05,05,37,17.30
2018,07,05,05,38,17.30
2018,07,05,05,39,17.30
2018,07,05,05,40,17.30
2018,07,05,05,41,17.20
2018,07,05,05,42,17.20
2018,07,05,05,43,17.20
2018,07,05,05,44,17.20
2018,07,05,05,45,17.20
2018,07,05,05,46,17.20
2018,07,05,05,47,17.20
2018,07,05,05,48,17.20
2018,07,05,05,49,17.20
2018,07,05,05,50,17.20
2018,07,05,05,51,17.20
2018,07,05,05,52,17.20
2018,07,05,05,53,17.20
2018,07,05,05,54,17.20
2018,07,05,05,55,17.20
2018,07,05,05,56,17.20
2018,07,05,05,57,17.20
2018,07,05,05,58,17.20
2018,07,05,05,59,17.20
2018,07,05,06,00,17.20
2018,07,05,06,01,17.20
2018,07,05,06,02,17.20
2018,07,05,06,03,17.20
2018,07,05,06,04,17.20
2018,07,05,06,05,17.30
2018,07,05,06,06,17.30
2018,07,05,06,07,17.30
2018,07,05,06,08,17.30
2018,07,05,06,09,17.30
2018,07,05,06,10,17.30
2018,07,05,06,11,17.30
2018,07,05,06,12,17.30
2018,07,05,06,13,17.30
2018,07,05,06,14,17.30
2018,07,05,06,15,17.30
2018,07,05,06,16,17.30
2018,07,05,06,17,17.30
2018,07,05,06,18,17.30
2018,07,05,06,19,17.30
2018,07,05,06,20,17.30
2018,07,05,06,21,17.30
2018,07,05,06,22,17.40
2018,07,05,06,23,17.40
2018,07,05,06,24,17.40
2018,07,05,06,25,17.40
2018,07,05,06,26,17.40
2018,07,05,06,27,17.40
2018,07,05,06,28,17.40
2018,07,05,06,29,17.40
2018,07,05,06,30,17.40
2018,07,05,06,31,17.40
2018,07,05,06,32,17.40
2018,07,05,06,33,17.40
2018,07,05,06,34,17.40
2018,07,05,06,35,17.40
2018,07,05,06,36,17.40
2018,07,05,06,37,17.40
2018,07,05,06,38,17.40
2018,07,05,06,39,17.40
2018,07,05,06,40,17.40
2018,07,05,06,41,17.40
2018,07,05,06,42,17.40
2018,07,05,06,43,17.40
2018,07,05,06,44,17.40
2018,07,05,06,45,17.40
2018,07,05,06,46,17.40
2018,07,05,06,47,17.40
2018,07,05,06,48,17.40
2018,07,05,06,49,17.40
2018,07,05,06,50,17.50
2018,07,05,06,51,17.50
2018,07,05,06,52,17.50
2018,07,05,06,53,17.50
2018,07,05,06,54,17.50
2018,07,05,06,55,17.50
2018,07,05,06,56,17.50
2018,07,05,06,57,17.40
2018,07,05,06,58,17.40
2018,07,05,06,59,17.40
2018,07,05,07,00,17.40
2018,07,05,07,01,17.40
2018,07,05,07,02,17.40
2018,07,05,07,03,17.40
2018,07,05,07,04,17.40
2018,07,05,07,05,17.40
2018,07,05,07,06,17.40
2018,07,05,07,07,17.40
2018,07,05,07,08,17.30
2018,07,05,07,09,17.30
2018,07,05,07,10,17.30
2018,07,05,07,11,17.30
2018,07,05,07,12,17.30
2018,07,05,07,13,17.30
2018,07,05,07,14,17.30
2018,07,05,07,15,17.30
2018,07,05,07,16,17.30
2018,07,05,07,17,17.30
2018,07,05,07,18,17.30
2018,07,05,07,19,17.30
2018,07,05,07,20,17.30
2018,07,05,07,21,17.30
2018,07,05,07,22,17.30
2018,07,05,07,23,17.30
2018,07,05,07,24,17.30
2018,07,05,07,25,17.30
2018,07,05,07,26,17.30
2018,07,05,07,27,17.30
2018,07,05,07,28,17.30
2018,07,05,07,29,17.30
2018,07,05,07,30,17.30
2018,07,05,07,31,17.30
2018,07,05,07,32,17.30
2018,07,05,07,33,17.30
2018,07,05,07,34,17.30
2018,07,05,07,35,17.30
2018,07,05,07,36,17.30
2018,07,05,07,37,17.30
2018,07,05,07,38,17.30
2018,07,05,07,39,17.30
2018,07,05,07,40,17.30
2018,07,05,07,41,17.30
2018,07,05,07,42,17.30
2018,07,05,07,43,17.30
2018,07,05,07,44,17.30
2018,07,05,07,45,17.30
2018,07,05,07,46,17.30
2018,07,05,07,47,17.40
2018,07,05,07,48,17.40
2018,07,05,07,49,17.40
2018,07,05,07,50,17.40
2018,07,05,07,51,17.50
2018,07,05,07,52,17.50
2018,07,05,07,53,17.60
2018,07,05,07,54,17.60
2018,07,05,07,55,17.60
2018,07,05,07,56,17.70
2018,07,05,07,57,17.70
2018,07,05,07,58,17.70
2018,07,05,07,59,17.80
2018,07,05,08,00,17.80
2018,07,05,08,01,17.80
2018,07,05,08,02,17.90
2018,07,05,08,03,17.90
2018,07,05,08,04,18.00
2018,07,05,08,05,18.00
2018,07,05,08,06,18.00
2018,07,05,08,07,18.10
2018,07,05,08,08,18.10
2018,07,05,08,09,18.10
2018,07,05,08,10,18.10
2018,07,05,08,11,18.10
2018,07,05,08,12,18.10
2018,07,05,08,13,18.10
2018,07,05,08,14,18.20
2018,07,05,08,15,18.20
2018,07,05,08,16,18.20
2018,07,05,08,17,18.20
2018,07,05,08,18,18.20
2018,07,05,08,19,18.20
2018,07,05,08,20,18.20
2018,07,05,08,21,18.20
2018,07,05,08,22,18.20
2018,07,05,08,23,18.20
2018,07,05,08,24,18.20
2018,07,05,08,25,18.20
2018,07,05,08,26,18.20
2018,07,05,08,27,18.20
2018,07,05,08,28,18.20
2018,07,05,08,29,18.30
2018,07,05,08,30,18.30
2018,07,05,08,31,18.30
2018,07,05,08,32,18.30
2018,07,05,08,33,18.30
2018,07,05,08,34,18.40
2018,07,05,08,35,18.40
2018,07,05,08,36,18.40
2018,07,05,08,37,18.50
2018,07,05,08,38,18.50
2018,07,05,08,39,18.60
2018,07,05,08,40,18.60
2018,07,05,08,41,18.60
2018,07,05,08,42,18.70
2018,07,05,08,43,18.70
2018,07,05,08,44,18.80
2018,07,05,08,45,18.90
2018,07,05,08,46,18.90
2018,07,05,08,47,19.00
2018,07,05,08,48,19.10
2018,07,05,08,49,19.10
2018,07,05,08,50,19.10
2018,07,05,08,51,19.20
2018,07,05,08,52,19.20
2018,07,05,08,53,19.20
2018,07,05,08,54,19.30
2018,07,05,08,55,19.30
2018,07,05,08,56,19.30
2018,07,05,08,57,19.30
2018,07,05,08,58,19.30
2018,07,05,08,59,19.30
2018,07,05,09,00,19.30
2018,07,05,09,01,19.40
2018,07,05,09,02,19.40
2018,07,05,09,03,19.40
2018,07,05,09,04,19.40
2018,07,05,09,05,19.40
2018,07,05,09,06,19.50
2018,07,05,09,07,19.60
2018,07,05,09,08,19.60
2018,07,05,09,09,19.70
2018,07,05,09,10,19.80
2018,07,05,09,11,19.80
2018,07,05,09,12,19.90
2018,07,05,09,13,19.90
2018,07,05,09,14,19.90
2018,07,05,09,15,19.90
2018,07,05,09,16,19.90
2018,07,05,09,17,19.90
2018,07,05,09,18,19.90
2018,07,05,09,19,19.90
2018,07,05,09,20,19.90
2018,07,05,09,21,19.90
2018,07,05,09,22,19.90
2018,07,05,09,23,19.90
2018,07,05,09,24,19.90
2018,07,05,09,25,19.90
2018,07,05,09,26,19.90
2018,07,05,09,27,19.90
2018,07,05,09,28,19.90
2018,07,05,09,29,19.90
2018,07,05,09,30,19.90
2018,07,05,09,31,19.90
2018,07,05,09,32,19.80
2018,07,05,09,33,19.80
2018,07,05,09,34,19.80
2018,07,05,09,35,19.80
2018,07,05,09,36,19.80
2018,07,05,09,37,19.80
2018,07,05,09,38,19.90
2018,07,05,09,39,19.90
2018,07,05,09,40,20.00
2018,07,05,09,41,20.00
2018,07,05,09,42,20.00
2018,07,05,09,43,20.10
2018,07,05,09,44,20.10
2018,07,05,09,45,20.20
2018,07,05,09,46,20.20
2018,07,05,09,47,20.30
2018,07,05,09,48,20.30
2018,07,05,09,49,20.40
2018,07,05,09,50,20.50
2018,07,05,09,51,20.50
2018,07,05,09,52,20.60
2018,07,05,09,53,20.70
2018,07,05,09,54,20.70
2018,07,05,09,55,20.70
2018,07,05,09,56,20.80
2018,07,05,09,57,20.80
2018,07,05,09,58,20.90
2018,07,05,09,59,20.90
2018,07,05,10,00,21.00
2018,07,05,10,01,21.00
2018,07,05,10,02,21.10
2018,07,05,10,03,21.10
2018,07,05,10,04,21.10
2018,07,05,10,05,21.20
2018,07,05,10,06,21.20
2018,07,05,10,07,21.30
2018,07,05,10,08,21.30
2018,07,05,10,09,21.30
2018,07,05,10,10,21.30
2018,07,05,10,11,21.30
2018,07,05,10,12,21.30
2018,07,05,10,13,21.30
2018,07,05,10,14,21.30
2018,07,05,10,15,21.30
2018,07,05,10,16,21.30
2018,07,05,10,17,21.30
2018,07,05,10,18,21.40
2018,07,05,10,19,21.50
2018,07,05,10,20,21.50
2018,07,05,10,21,21.60
2018,07,05,10,22,21.60
2018,07,05,10,23,21.70
2018,07,05,10,24,21.70
2018,07,05,10,25,21.80
2018,07,05,10,26,21.80
2018,07,05,10,27,21.80
2018,07,05,10,28,21.90
2018,07,05,10,29,21.90
2018,07,05,10,30,22.00
2018,07,05,10,31,22.00
2018,07,05,10,32,22.10
2018,07,05,10,33,22.00
2018,07,05,10,34,22.00
2018,07,05,10,35,21.90
2018,07,05,10,36,21.90
2018,07,05,10,37,21.90
2018,07,05,10,38,21.90
2018,07,05,10,39,21.90
2018,07,05,10,40,22.00
2018,07,05,10,41,22.00
2018,07,05,10,42,22.00
2018,07,05,10,43,22.00
2018,07,05,10,44,22.10
2018,07,05,10,45,22.10
2018,07,05,10,46,22.20
2018,07,05,10,47,22.20
2018,07,05,10,48,22.30
2018,07,05,10,49,22.30
2018,07,05,10,50,22.40
2018,07,05,10,51,22.40
2018,07,05,10,52,22.40
2018,07,05,10,53,22.40
2018,07,05,10,54,22.40
2018,07,05,10,55,22.50
2018,07,05,10,56,22.50
2018,07,05,10,57,22.60
2018,07,05,10,58,22.60
2018,07,05,10,59,22.60
2018,07,05,11,00,22.70
2018,07,05,11,01,22.70
2018,07,05,11,02,22.80
2018,07,05,11,03,22.90
2018,07,05,11,04,23.00
2018,07,05,11,05,23.10
2018,07,05,11,06,23.10
2018,07,05,11,07,23.10
2018,07,05,11,08,23.10
2018,07,05,11,09,23.10
2018,07,05,11,10,23.20
2018,07,05,11,11,23.20
2018,07,05,11,12,23.20
2018,07,05,11,13,23.30
2018,07,05,11,14,23.40
2018,07,05,11,15,23.40
2018,07,05,11,16,23.50
2018,07,05,11,17,23.60
2018,07,05,11,18,23.60
2018,07,05,11,19,23.70
2018,07,05,11,20,23.80
2018,07,05,11,21,23.90
2018,07,05,11,22,24.00
2018,07,05,11,23,24.10
2018,07,05,11,24,24.10
2018,07,05,11,25,24.20
2018,07,05,11,26,24.20
2018,07,05,11,27,24.30
2018,07,05,11,28,24.30
2018,07,05,11,29,24.40
2018,07,05,11,30,24.50
2018,07,05,11,31,24.50
2018,07,05,11,32,24.60
2018,07,05,11,33,24.70
2018,07,05,11,34,24.70
2018,07,05,11,35,24.70
2018,07,05,11,36,24.80
2018,07,05,11,37,24.80
2018,07,05,11,38,24.90
2018,07,05,11,39,25.00
2018,07,05,11,40,25.00
2018,07,05,11,41,25.10
2018,07,05,11,42,25.10
2018,07,05,11,43,25.20
2018,07,05,11,44,25.20
2018,07,05,11,45,25.20
2018,07,05,11,46,25.20
2018,07,05,11,47,25.20
2018,07,05,11,48,25.20
2018,07,05,11,49,25.20
2018,07,05,11,50,25.30
2018,07,05,11,51,25.30
2018,07,05,11,52,25.30
2018,07,05,11,53,25.20
2018,07,05,11,54,25.20
2018,07,05,11,55,25.10
2018,07,05,11,56,25.10
2018,07,05,11,57,25.10
2018,07,05,11,58,25.10
2018,07,05,11,59,25.20
2018,07,05,12,00,25.20
2018,07,05,12,01,25.20
2018,07,05,12,02,25.20
2018,07,05,12,03,25.20
2018,07,05,12,04,25.20
2018,07,05,12,05,25.20
2018,07,05,12,06,25.30
2018,07,05,12,07,25.30
2018,07,05,12,08,25.30
2018,07,05,12,09,25.40
2018,07,05,12,10,25.40
2018,07,05,12,11,25.50
2018,07,05,12,12,25.60
2018,07,05,12,13,25.60
2018,07,05,12,14,25.60
2018,07,05,12,15,25.60
2018,07,05,12,16,25.70
2018,07,05,12,17,25.70
2018,07,05,12,18,25.70
2018,07,05,12,19,25.70
2018,07,05,12,20,25.80
2018,07,05,12,21,25.80
2018,07,05,12,22,25.70
2018,07,05,12,23,25.70
2018,07,05,12,24,25.70
2018,07,05,12,25,25.70
2018,07,05,12,26,25.70
2018,07,05,12,27,25.70
2018,07,05,12,28,25.80
2018,07,05,12,29,25.80
2018,07,05,12,30,25.80
2018,07,05,12,31,25.90
2018,07,05,12,32,25.90
2018,07,05,12,33,25.90
2018,07,05,12,34,26.00
2018,07,05,12,35,26.00
2018,07,05,12,36,26.00
2018,07,05,12,37,26.00
2018,07,05,12,38,26.00
2018,07,05,12,39,26.00
2018,07,05,12,40,26.00
2018,07,05,12,41,26.00
2018,07,05,12,42,26.00
2018,07,05,12,43,26.00
2018,07,05,12,44,26.00
2018,07,05,12,45,26.00
2018,07,05,12,46,26.10
2018,07,05,12,47,26.10
2018,07,05,12,48,26.10
2018,07,05,12,49,26.10
2018,07,05,12,50,26.10
2018,07,05,12,51,26.20
2018,07,05,12,52,26.20
2018,07,05,12,53,26.30
2018,07,05,12,54,26.30
2018,07,05,12,55,26.30
2018,07,05,12,56,26.40
2018,07,05,12,57,26.40
2018,07,05,12,58,26.40
2018,07,05,12,59,26.50
2018,07,05,13,00,26.60
2018,07,05,13,01,26.60
2018,07,05,13,02,26.60
2018,07,05,13,03,26.60
2018,07,05,13,04,26.60
2018,07,05,13,05,26.60
2018,07,05,13,06,26.60
2018,07,05,13,07,26.60
2018,07,05,13,08,26.60
2018,07,05,13,09,26.60
2018,07,05,13,10,26.70
2018,07,05,13,11,26.70
2018,07,05,13,12,26.70
2018,07,05,13,13,26.70
2018,07,05,13,14,26.70
2018,07,05,13,15,26.70
2018,07,05,13,16,26.70
2018,07,05,13,17,26.70
2018,07,05,13,18,26.70
2018,07,05,13,19,26.70
2018,07,05,13,20,26.70
2018,07,05,13,21,26.60
2018,07,05,13,22,26.70
2018,07,05,13,23,26.60
2018,07,05,13,24,26.50
2018,07,05,13,25,26.50
2018,07,05,13,26,26.40
2018,07,05,13,27,26.40
2018,07,05,13,28,26.40
2018,07,05,13,29,26.40
2018,07,05,13,30,26.40
2018,07,05,13,31,26.40
2018,07,05,13,32,26.40
2018,07,05,13,33,26.50
2018,07,05,13,34,26.60
2018,07,05,13,35,26.60
2018,07,05,13,36,26.60
2018,07,05,13,37,26.70
2018,07,05,13,38,26.70
2018,07,05,13,39,26.70
2018,07,05,13,40,26.70
2018,07,05,13,41,26.80
2018,07,05,13,42,26.80
2018,07,05,13,43,26.80
2018,07,05,13,44,26.80
2018,07,05,13,45,26.90
2018,07,05,13,46,26.90
2018,07,05,13,47,26.90
2018,07,05,13,48,26.90
2018,07,05,13,49,26.90
2018,07,05,13,50,26.90
2018,07,05,13,51,26.80
2018,07,05,13,52,26.80
2018,07,05,13,53,26.80
2018,07,05,13,54,26.80
2018,07,05,13,55,26.90
2018,07,05,13,56,27.00
2018,07,05,13,57,27.10
2018,07,05,13,58,27.10
2018,07,05,13,59,27.20
2018,07,05,14,00,27.30
2018,07,05,14,01,27.30
2018,07,05,14,02,27.30
2018,07,05,14,03,27.40
2018,07,05,14,04,27.40
2018,07,05,14,05,27.40
2018,07,05,14,06,27.30
2018,07,05,14,07,27.30
2018,07,05,14,08,27.30
2018,07,05,14,09,27.30
2018,07,05,14,10,27.30
2018,07,05,14,11,27.30
2018,07,05,14,12,27.30
2018,07,05,14,13,27.30
2018,07,05,14,14,27.20
2018,07,05,14,15,27.20
2018,07,05,14,16,27.20
2018,07,05,14,17,27.20
2018,07,05,14,18,27.20
2018,07,05,14,19,27.20
2018,07,05,14,20,27.20
2018,07,05,14,21,27.20
2018,07,05,14,22,27.20
2018,07,05,14,23,27.20
2018,07,05,14,24,27.10
2018,07,05,14,25,27.10
2018,07,05,14,26,27.10
2018,07,05,14,27,27.10
2018,07,05,14,28,27.10
2018,07,05,14,29,27.10
2018,07,05,14,30,27.10
2018,07,05,14,31,27.10
2018,07,05,14,32,27.10
2018,07,05,14,33,27.00
2018,07,05,14,34,27.00
2018,07,05,14,35,27.00
2018,07,05,14,36,26.90
2018,07,05,14,37,27.00
2018,07,05,14,38,26.90
2018,07,05,14,39,26.90
2018,07,05,14,40,26.90
2018,07,05,14,41,27.00
2018,07,05,14,42,27.10
2018,07,05,14,43,27.10
2018,07,05,14,44,27.20
2018,07,05,14,45,27.30
2018,07,05,14,46,27.40
2018,07,05,14,47,27.50
2018,07,05,14,48,27.50
2018,07,05,14,49,27.50
2018,07,05,14,50,27.60
2018,07,05,14,51,27.60
2018,07,05,14,52,27.60
2018,07,05,14,53,27.70
2018,07,05,14,54,27.70
2018,07,05,14,55,27.80
2018,07,05,14,56,27.80
2018,07,05,14,57,27.80
2018,07,05,14,58,27.80
2018,07,05,14,59,27.80
2018,07,05,15,00,27.80
2018,07,05,15,01,27.80
2018,07,05,15,02,27.80
2018,07,05,15,03,27.80
2018,07,05,15,04,27.80
2018,07,05,15,05,27.90
2018,07,05,15,06,27.90
2018,07,05,15,07,27.90
2018,07,05,15,08,27.90
2018,07,05,15,09,27.80
2018,07,05,15,10,27.70
2018,07,05,15,11,27.70
2018,07,05,15,12,27.70
2018,07,05,15,13,27.70
2018,07,05,15,14,27.70
2018,07,05,15,15,27.70
2018,07,05,15,16,27.70
2018,07,05,15,17,27.70
2018,07,05,15,18,27.80
2018,07,05,15,19,27.90
2018,07,05,15,20,28.00
2018,07,05,15,21,28.10
2018,07,05,15,22,28.20
2018,07,05,15,23,28.20
2018,07,05,15,24,28.20
2018,07,05,15,25,28.20
2018,07,05,15,26,28.20
2018,07,05,15,27,28.20
2018,07,05,15,28,28.20
2018,07,05,15,29,28.10
2018,07,05,15,30,28.00
2018,07,05,15,31,28.00
2018,07,05,15,32,27.90
2018,07,05,15,33,27.90
2018,07,05,15,34,28.00
2018,07,05,15,35,27.90
2018,07,05,15,36,27.90
2018,07,05,15,37,27.90
2018,07,05,15,38,27.90
2018,07,05,15,39,27.90
2018,07,05,15,40,27.90
2018,07,05,15,41,28.00
2018,07,05,15,42,28.00
2018,07,05,15,43,28.10
2018,07,05,15,44,28.20
2018,07,05,15,45,28.30
2018,07,05,15,46,28.30
2018,07,05,15,47,28.40
2018,07,05,15,48,28.40
2018,07,05,15,49,28.50
2018,07,05,15,50,28.60
2018,07,05,15,51,28.60
2018,07,05,15,52,28.70
2018,07,05,15,53,28.70
2018,07,05,15,54,28.70
2018,07,05,15,55,28.70
2018,07,05,15,56,28.70
2018,07,05,15,57,28.60
2018,07,05,15,58,28.50
2018,07,05,15,59,28.30
2018,07,05,16,00,28.30
2018,07,05,16,01,28.20
2018,07,05,16,02,28.20
2018,07,05,16,03,28.20
2018,07,05,16,04,28.10
2018,07,05,16,05,28.20
2018,07,05,16,06,28.20
2018,07,05,16,07,28.20
2018,07,05,16,08,28.20
2018,07,05,16,09,28.20
2018,07,05,16,10,28.20
2018,07,05,16,11,28.10
2018,07,05,16,12,28.10
2018,07,05,16,13,28.10
2018,07,05,16,14,28.10
2018,07,05,16,15,28.00
2018,07,05,16,16,27.90
2018,07,05,16,17,27.90
2018,07,05,16,18,27.80
2018,07,05,16,19,27.80
2018,07,05,16,20,27.80
2018,07,05,16,21,27.70
2018,07,05,16,22,27.60
2018,07,05,16,23,27.50
2018,07,05,16,24,27.50
2018,07,05,16,25,27.50
2018,07,05,16,26,27.60
2018,07,05,16,27,27.60
2018,07,05,16,28,27.70
2018,07,05,16,29,27.70
2018,07,05,16,30,27.70
2018,07,05,16,31,27.70
2018,07,05,16,32,27.70
2018,07,05,16,33,27.60
2018,07,05,16,34,27.60
2018,07,05,16,35,27.60
2018,07,05,16,36,27.60
2018,07,05,16,37,27.60
2018,07,05,16,38,27.60
2018,07,05,16,39,27.60
2018,07,05,16,40,27.60
2018,07,05,16,41,27.60
2018,07,05,16,42,27.70
2018,07,05,16,43,27.70
2018,07,05,16,44,27.70
2018,07,05,16,45,27.60
2018,07,05,16,46,27.60
2018,07,05,16,47,27.60
2018,07,05,16,48,27.60
2018,07,05,16,49,27.60
2018,07,05,16,50,27.60
2018,07,05,16,51,27.60
2018,07,05,16,52,27.70
2018,07,05,16,53,27.70
2018,07,05,16,54,27.70
2018,07,05,16,55,27.60
2018,07,05,16,56,27.60
2018,07,05,16,57,27.50
2018,07,05,16,58,27.40
2018,07,05,16,59,27.40
2018,07,05,17,00,27.30
2018,07,05,17,01,27.30
2018,07,05,17,02,27.20
2018,07,05,17,03,27.20
2018,07,05,17,04,27.20
2018,07,05,17,05,27.10
2018,07,05,17,06,27.10
2018,07,05,17,07,27.00
2018,07,05,17,08,26.90
2018,07,05,17,09,26.90
2018,07,05,17,10,26.90
2018,07,05,17,11,26.80
2018,07,05,17,12,26.80
2018,07,05,17,13,26.80
2018,07,05,17,14,26.80
2018,07,05,17,15,26.80
2018,07,05,17,16,26.80
2018,07,05,17,17,26.80
2018,07,05,17,18,26.90
2018,07,05,17,19,27.00